| time (UTC) | temp F | wind direction | speed MPH | gust MPH | rain 1hr in | rain 24hr in | rain mn in | humidity % | barometer mb |
| 20260508135318 | 53 | 116 | 1.0 | 2.0 | 0.00 | 0.00 | 0.00 | 56 | 1021.4 |
| 20260508134814 | 53 | 74 | 1.0 | 1.0 | 0.00 | 0.00 | 0.00 | 59 | 1021.1 |
| 20260508134311 | 52 | 54 | 0.0 | 0.0 | 0.00 | 0.00 | 0.00 | 59 | 1021.0 |
| 20260508133807 | 52 | 67 | 0.0 | 0.0 | 0.00 | 0.00 | 0.00 | 60 | 1021.1 |
| 20260508133305 | 51 | 77 | 1.0 | 1.0 | 0.00 | 0.00 | 0.00 | 60 | 1021.0 |
| 20260508132802 | 51 | 25 | 0.0 | 0.0 | 0.00 | 0.00 | 0.00 | 63 | 1021.0 |
| 20260508132300 | 51 | 38 | 0.0 | 0.0 | 0.00 | 0.00 | 0.00 | 62 | 1021.0 |
| 20260508131755 | 51 | 16 | 0.0 | 0.0 | 0.00 | 0.00 | 0.00 | 61 | 1020.8 |
| 20260508131252 | 50 | 94 | 0.0 | 1.0 | 0.00 | 0.00 | 0.00 | 65 | 1020.9 |
| 20260508130748 | 50 | 33 | 0.0 | 1.0 | 0.00 | 0.00 | 0.00 | 65 | 1021.0 |
| 20260508130246 | 50 | 23 | 0.0 | 0.0 | 0.00 | 0.00 | 0.00 | 67 | 1020.8 |
| 20260508125741 | 50 | 34 | 0.0 | 0.0 | 0.00 | 0.00 | 0.00 | 67 | 1020.9 |
| 20260508125238 | 49 | 40 | 0.0 | 0.0 | 0.00 | 0.00 | 0.00 | 64 | 1020.8 |
| 20260508124736 | 49 | 8 | 0.0 | 0.0 | 0.00 | 0.00 | 0.00 | 69 | 1020.9 |
| 20260508124233 | 49 | 7 | 0.0 | 0.0 | 0.00 | 0.00 | 0.00 | 68 | 1020.7 |
| 20260508123731 | 48 | 7 | 0.0 | 0.0 | 0.00 | 0.00 | 0.00 | 68 | 1020.6 |
| 20260508123229 | 48 | 8 | 0.0 | 0.0 | 0.00 | 0.00 | 0.00 | 71 | 1020.7 |
| 20260508122725 | 48 | 7 | 0.0 | 0.0 | 0.00 | 0.00 | 0.00 | 68 | 1020.6 |
| 20260508122222 | 48 | 8 | 0.0 | 0.0 | 0.00 | 0.00 | 0.00 | 65 | 1020.6 |
| 20260508121719 | 47 | 7 | 0.0 | 0.0 | 0.00 | 0.00 | 0.00 | 68 | 1020.6 |
| 20260508121218 | 47 | 8 | 0.0 | 0.0 | 0.00 | 0.00 | 0.00 | 67 | 1020.6 |
| 20260508120715 | 47 | 8 | 0.0 | 0.0 | 0.00 | 0.00 | 0.00 | 68 | 1020.4 |
| 20260508120213 | 47 | 8 | 1.0 | 1.0 | 0.00 | 0.00 | 0.00 | 69 | 1020.4 |
| 20260508115710 | 46 | 8 | 0.0 | 0.0 | 0.00 | 0.00 | 0.00 | 74 | 1020.4 |
| 20260508115207 | 46 | 8 | 0.0 | 0.0 | 0.00 | 0.00 | 0.00 | 68 | 1020.4 |
| 20260508114704 | 46 | 8 | 0.0 | 0.0 | 0.00 | 0.00 | 0.00 | 70 | 1020.4 |
| 20260508114201 | 45 | 8 | 0.0 | 0.0 | 0.00 | 0.00 | 0.00 | 70 | 1020.2 |
| 20260508113657 | 45 | 8 | 0.0 | 0.0 | 0.00 | 0.00 | 0.00 | 74 | 1020.0 |
| 20260508113156 | 45 | 8 | 1.0 | 1.0 | 0.00 | 0.00 | 0.00 | 71 | 1020.0 |
| 20260508112651 | 45 | 8 | 0.0 | 0.0 | 0.00 | 0.00 | 0.00 | 71 | 1019.9 |
| 20260508112149 | 45 | 9 | 0.0 | 0.0 | 0.00 | 0.00 | 0.00 | 69 | 1019.8 |
| 20260508111645 | 44 | 8 | 0.0 | 0.0 | 0.00 | 0.00 | 0.00 | 68 | 1019.5 |
| 20260508111143 | 44 | 9 | 0.0 | 0.0 | 0.00 | 0.00 | 0.00 | 69 | 1019.8 |
| 20260508110640 | 44 | 11 | 0.0 | 0.0 | 0.00 | 0.00 | 0.00 | 69 | 1019.8 |
| 20260508110136 | 44 | 11 | 0.0 | 0.0 | 0.00 | 0.00 | 0.00 | 70 | 1019.6 |
| 20260508105631 | 43 | 11 | 0.0 | 0.0 | 0.00 | 0.00 | 0.00 | 69 | 1019.3 |
| 20260508105129 | 43 | 351 | 1.0 | 1.0 | 0.00 | 0.00 | 0.00 | 70 | 1019.4 |
| 20260508104626 | 43 | 12 | 0.0 | 0.0 | 0.00 | 0.00 | 0.00 | 67 | 1019.2 |
| 20260508104123 | 43 | 346 | 0.0 | 0.0 | 0.00 | 0.00 | 0.00 | 69 | 1019.2 |
| 20260508103620 | 43 | 343 | 0.0 | 1.0 | 0.00 | 0.00 | 0.00 | 71 | 1018.9 |
| 20260508103117 | 44 | 2 | 0.0 | 0.0 | 0.00 | 0.00 | 0.00 | 70 | 1018.8 |
| 20260508102614 | 45 | 125 | 1.0 | 1.0 | 0.00 | 0.00 | 0.00 | 70 | 1018.8 |
| 20260508102112 | 44 | 75 | 0.0 | 1.0 | 0.00 | 0.00 | 0.00 | 65 | 1018.8 |
| 20260508101609 | 45 | 13 | 1.0 | 1.0 | 0.00 | 0.00 | 0.00 | 66 | 1018.9 |
| 20260508101107 | 45 | 12 | 0.0 | 0.0 | 0.00 | 0.00 | 0.00 | 65 | 1018.6 |
| 20260508100604 | 45 | 340 | 1.0 | 1.0 | 0.00 | 0.00 | 0.00 | 65 | 1018.7 |
| 20260508095558 | 46 | 355 | 0.0 | 1.0 | 0.00 | 0.00 | 0.00 | 63 | 1018.6 |
| 20260508095055 | 46 | 359 | 0.0 | 0.0 | 0.00 | 0.00 | 0.00 | 63 | 1018.5 |
| 20260508094552 | 46 | 3 | 0.0 | 0.0 | 0.00 | 0.00 | 0.00 | 62 | 1018.5 |
| 20260508094049 | 46 | 2 | 0.0 | 1.0 | 0.00 | 0.00 | 0.00 | 63 | 1018.6 |
| 20260508093546 | 46 | 4 | 0.0 | 0.0 | 0.00 | 0.00 | 0.00 | 64 | 1018.2 |
| 20260508093044 | 46 | 316 | 1.0 | 1.0 | 0.00 | 0.00 | 0.00 | 64 | 1018.4 |
| 20260508092541 | 45 | 339 | 0.0 | 1.0 | 0.00 | 0.00 | 0.00 | 66 | 1018.4 |
| 20260508092040 | 46 | 3 | 0.0 | 0.0 | 0.00 | 0.00 | 0.00 | 66 | 1018.4 |
| 20260508091536 | 46 | 276 | 2.0 | 2.0 | 0.00 | 0.00 | 0.00 | 66 | 1018.2 |
| 20260508091033 | 45 | 113 | 2.0 | 2.0 | 0.00 | 0.00 | 0.00 | 63 | 1018.1 |
| 20260508090531 | 45 | 68 | 0.0 | 0.0 | 0.00 | 0.00 | 0.00 | 68 | 1018.0 |
| 20260508090027 | 46 | 190 | 2.0 | 2.0 | 0.00 | 0.00 | 0.00 | 68 | 1018.1 |
| 20260508085524 | 46 | 20 | 0.0 | 1.0 | 0.00 | 0.00 | 0.00 | 66 | 1018.0 |
| 20260508085021 | 46 | 75 | 0.0 | 1.0 | 0.00 | 0.00 | 0.00 | 63 | 1017.9 |
| 20260508084518 | 47 | 19 | 0.0 | 0.0 | 0.00 | 0.00 | 0.00 | 64 | 1018.0 |
| 20260508084016 | 47 | 0 | 0.0 | 0.0 | 0.00 | 0.00 | 0.00 | 64 | 1018.1 |
| 20260508083512 | 47 | 269 | 1.0 | 1.0 | 0.00 | 0.00 | 0.00 | 64 | 1018.1 |
| 20260508083009 | 48 | 227 | 1.0 | 1.0 | 0.00 | 0.00 | 0.00 | 61 | 1018.0 |
| 20260508082505 | 48 | 223 | 0.0 | 0.0 | 0.00 | 0.00 | 0.00 | 61 | 1018.1 |
| 20260508082003 | 47 | 215 | 1.0 | 1.0 | 0.00 | 0.00 | 0.00 | 61 | 1018.0 |
| 20260508081500 | 46 | 274 | 0.0 | 1.0 | 0.00 | 0.00 | 0.00 | 63 | 1017.8 |
| 20260508080955 | 46 | 69 | 0.0 | 0.0 | 0.00 | 0.00 | 0.00 | 68 | 1017.6 |
| 20260508080454 | 47 | 325 | 1.0 | 1.0 | 0.00 | 0.00 | 0.00 | 68 | 1017.7 |
| 20260508075950 | 46 | 194 | 3.0 | 3.0 | 0.00 | 0.00 | 0.00 | 68 | 1017.6 |
| 20260508075447 | 47 | 198 | 1.0 | 2.0 | 0.00 | 0.00 | 0.00 | 68 | 1017.8 |
| 20260508074945 | 47 | 349 | 1.0 | 1.0 | 0.00 | 0.00 | 0.00 | 68 | 1017.7 |
| 20260508074443 | 47 | 107 | 1.0 | 1.0 | 0.00 | 0.00 | 0.00 | 68 | 1017.6 |
| 20260508073939 | 47 | 174 | 1.0 | 2.0 | 0.00 | 0.00 | 0.00 | 68 | 1017.6 |
| 20260508073437 | 47 | 58 | 0.0 | 0.0 | 0.00 | 0.00 | 0.00 | 68 | 1017.5 |
| 20260508072933 | 48 | 336 | 0.0 | 1.0 | 0.00 | 0.00 | 0.00 | 67 | 1017.6 |
| 20260508072430 | 48 | 86 | 1.0 | 1.0 | 0.00 | 0.00 | 0.00 | 67 | 1017.4 |
| 20260508071927 | 48 | 73 | 0.0 | 1.0 | 0.00 | 0.00 | 0.00 | 68 | 1017.4 |
| 20260508071425 | 48 | 72 | 0.0 | 0.0 | 0.00 | 0.00 | 0.00 | 66 | 1017.6 |
| 20260508070922 | 48 | 89 | 0.0 | 1.0 | 0.00 | 0.00 | 0.00 | 68 | 1017.5 |
| 20260508070420 | 49 | 109 | 1.0 | 1.0 | 0.00 | 0.00 | 0.00 | 65 | 1017.6 |
| 20260508065918 | 49 | 333 | 1.0 | 1.0 | 0.00 | 0.00 | 0.00 | 66 | 1017.4 |
| 20260508065416 | 48 | 214 | 3.0 | 3.0 | 0.00 | 0.00 | 0.00 | 66 | 1017.4 |
| 20260508064914 | 49 | 67 | 1.0 | 2.0 | 0.00 | 0.00 | 0.00 | 69 | 1017.4 |
| 20260508064411 | 49 | 89 | 1.0 | 1.0 | 0.00 | 0.00 | 0.00 | 68 | 1017.4 |
| 20260508063909 | 49 | 19 | 0.0 | 0.0 | 0.00 | 0.00 | 0.00 | 70 | 1017.5 |
| 20260508063406 | 49 | 298 | 0.0 | 1.0 | 0.00 | 0.00 | 0.00 | 67 | 1017.3 |
| 20260508062903 | 50 | 26 | 1.0 | 1.0 | 0.00 | 0.00 | 0.00 | 66 | 1017.3 |
| 20260508062401 | 50 | 30 | 0.0 | 0.0 | 0.00 | 0.00 | 0.00 | 68 | 1017.2 |
| 20260508061857 | 50 | 39 | 0.0 | 0.0 | 0.00 | 0.00 | 0.00 | 67 | 1017.5 |
| 20260508061355 | 50 | 21 | 0.0 | 1.0 | 0.00 | 0.00 | 0.00 | 68 | 1017.3 |
| 20260508060851 | 50 | 31 | 1.0 | 4.0 | 0.00 | 0.00 | 0.00 | 68 | 1017.4 |
| 20260508060349 | 50 | 48 | 0.0 | 1.0 | 0.00 | 0.00 | 0.00 | 68 | 1017.5 |
| 20260508055844 | 50 | 42 | 0.0 | 1.0 | 0.00 | 0.00 | 0.00 | 67 | 1017.5 |
| 20260508055342 | 50 | 27 | 1.0 | 1.0 | 0.00 | 0.00 | 0.00 | 68 | 1017.9 |
| 20260508054838 | 50 | 18 | 0.0 | 0.0 | 0.00 | 0.00 | 0.00 | 69 | 1017.5 |
| 20260508054335 | 51 | 334 | 1.0 | 2.0 | 0.00 | 0.00 | 0.00 | 68 | 1017.8 |
| 20260508053832 | 51 | 293 | 2.0 | 2.0 | 0.00 | 0.00 | 0.00 | 69 | 1017.6 |
| 20260508053330 | 51 | 29 | 1.0 | 2.0 | 0.00 | 0.00 | 0.00 | 68 | 1017.4 |
| 20260508052827 | 51 | 28 | 1.0 | 1.0 | 0.00 | 0.00 | 0.00 | 68 | 1017.6 |
| 20260508052324 | 51 | 274 | 1.0 | 2.0 | 0.00 | 0.00 | 0.00 | 68 | 1017.4 |
| 20260508051820 | 51 | 270 | 1.0 | 1.0 | 0.00 | 0.00 | 0.00 | 68 | 1017.5 |
| 20260508051316 | 51 | 49 | 0.0 | 1.0 | 0.00 | 0.00 | 0.00 | 67 | 1017.4 |
| 20260508050812 | 51 | 145 | 1.0 | 2.0 | 0.00 | 0.00 | 0.00 | 67 | 1017.4 |
| 20260508050309 | 51 | 304 | 4.0 | 4.0 | 0.00 | 0.00 | 0.00 | 69 | 1017.3 |
| 20260508045805 | 51 | 37 | 1.0 | 2.0 | 0.00 | 0.00 | 0.00 | 69 | 1017.0 |
| 20260508045306 | 51 | 258 | 3.0 | 7.0 | 0.00 | 0.00 | 0.00 | 68 | 1017.1 |
| 20260508044800 | 51 | 17 | 4.0 | 7.0 | 0.00 | 0.00 | 0.00 | 68 | 1017.0 |
| 20260508044257 | 51 | 52 | 3.0 | 4.0 | 0.00 | 0.00 | 0.00 | 68 | 1017.2 |
| 20260508043753 | 52 | 272 | 2.0 | 3.0 | 0.00 | 0.00 | 0.00 | 68 | 1017.2 |
| 20260508043250 | 51 | 248 | 2.0 | 2.0 | 0.00 | 0.00 | 0.00 | 68 | 1017.0 |
| 20260508042747 | 51 | 18 | 0.0 | 0.0 | 0.00 | 0.00 | 0.00 | 72 | 1017.0 |
| 20260508042244 | 52 | 188 | 2.0 | 3.0 | 0.00 | 0.00 | 0.00 | 69 | 1016.9 |
| 20260508041741 | 52 | 309 | 1.0 | 1.0 | 0.00 | 0.00 | 0.00 | 69 | 1016.9 |
| 20260508041238 | 51 | 212 | 2.0 | 4.0 | 0.00 | 0.00 | 0.00 | 68 | 1016.7 |
| 20260508040734 | 51 | 16 | 1.0 | 1.0 | 0.00 | 0.00 | 0.00 | 70 | 1017.0 |
| 20260508040231 | 52 | 197 | 3.0 | 3.0 | 0.00 | 0.00 | 0.00 | 71 | 1016.6 |
| 20260508035729 | 52 | 198 | 6.0 | 9.0 | 0.00 | 0.02 | 0.02 | 68 | 1016.5 |
| 20260508035226 | 51 | 234 | 2.0 | 3.0 | 0.00 | 0.02 | 0.02 | 71 | 1016.6 |
| 20260508034722 | 52 | 10 | 0.0 | 0.0 | 0.00 | 0.02 | 0.02 | 70 | 1016.7 |
| 20260508034220 | 51 | 249 | 2.0 | 4.0 | 0.00 | 0.02 | 0.02 | 70 | 1016.6 |
| 20260508033717 | 51 | 58 | 1.0 | 1.0 | 0.00 | 0.02 | 0.02 | 71 | 1016.6 |
| 20260508033215 | 51 | 22 | 1.0 | 2.0 | 0.00 | 0.02 | 0.02 | 71 | 1016.5 |
| 20260508032712 | 51 | 26 | 2.0 | 2.0 | 0.00 | 0.02 | 0.02 | 71 | 1016.6 |
| 20260508032209 | 51 | 92 | 2.0 | 4.0 | 0.00 | 0.02 | 0.02 | 72 | 1016.4 |
| 20260508031706 | 51 | 93 | 0.0 | 1.0 | 0.00 | 0.02 | 0.02 | 74 | 1016.4 |
| 20260508031202 | 52 | 144 | 3.0 | 3.0 | 0.00 | 0.02 | 0.02 | 71 | 1016.5 |
| 20260508030659 | 52 | 27 | 5.0 | 8.0 | 0.00 | 0.02 | 0.02 | 70 | 1016.2 |
| 20260508030156 | 52 | 53 | 2.0 | 2.0 | 0.00 | 0.02 | 0.02 | 71 | 1016.2 |
| 20260508025653 | 52 | 157 | 1.0 | 1.0 | 0.00 | 0.02 | 0.02 | 71 | 1016.1 |
| 20260508025150 | 52 | 234 | 1.0 | 2.0 | 0.00 | 0.02 | 0.02 | 71 | 1015.8 |
| 20260508024645 | 52 | 31 | 0.0 | 1.0 | 0.00 | 0.02 | 0.02 | 70 | 1016.0 |
| 20260508024143 | 52 | 248 | 3.0 | 4.0 | 0.00 | 0.02 | 0.02 | 70 | 1015.9 |
| 20260508023639 | 52 | 280 | 2.0 | 2.0 | 0.00 | 0.02 | 0.02 | 70 | 1015.9 |
| 20260508023137 | 52 | 19 | 1.0 | 1.0 | 0.00 | 0.02 | 0.02 | 70 | 1016.1 |
| 20260508022632 | 52 | 24 | 4.0 | 7.0 | 0.00 | 0.02 | 0.02 | 70 | 1016.0 |
| 20260508022130 | 52 | 13 | 4.0 | 9.0 | 0.00 | 0.02 | 0.02 | 71 | 1015.9 |
| 20260508021625 | 52 | 33 | 1.0 | 2.0 | 0.00 | 0.02 | 0.02 | 70 | 1016.1 |
| 20260508021121 | 52 | 273 | 2.0 | 3.0 | 0.00 | 0.02 | 0.02 | 71 | 1015.8 |
| 20260508020620 | 52 | 28 | 1.0 | 3.0 | 0.00 | 0.02 | 0.02 | 71 | 1015.6 |
| 20260508020117 | 52 | 287 | 1.0 | 2.0 | 0.00 | 0.02 | 0.02 | 71 | 1015.7 |
| 20260508015614 | 51 | 40 | 3.0 | 4.0 | 0.00 | 0.02 | 0.02 | 72 | 1015.8 |
| 20260508015111 | 51 | 168 | 1.0 | 1.0 | 0.00 | 0.02 | 0.02 | 71 | 1015.7 |
| 20260508014607 | 51 | 29 | 2.0 | 2.0 | 0.00 | 0.02 | 0.02 | 71 | 1015.5 |
| 20260508014104 | 51 | 178 | 3.0 | 3.0 | 0.00 | 0.02 | 0.02 | 71 | 1015.3 |
| 20260508013559 | 51 | 200 | 3.0 | 4.0 | 0.00 | 0.02 | 0.02 | 73 | 1015.3 |
| 20260508013057 | 51 | 57 | 1.0 | 1.0 | 0.00 | 0.02 | 0.02 | 74 | 1015.2 |
| 20260508012554 | 51 | 126 | 1.0 | 1.0 | 0.00 | 0.02 | 0.02 | 71 | 1015.2 |
| 20260508012051 | 51 | 59 | 0.0 | 0.0 | 0.00 | 0.02 | 0.02 | 72 | 1015.0 |
| 20260508011550 | 50 | 54 | 1.0 | 1.0 | 0.00 | 0.02 | 0.02 | 76 | 1015.1 |
| 20260508011047 | 50 | 200 | 2.0 | 2.0 | 0.00 | 0.02 | 0.02 | 77 | 1014.9 |
| 20260508010543 | 50 | 26 | 1.0 | 1.0 | 0.00 | 0.02 | 0.02 | 75 | 1014.6 |
| 20260508010041 | 51 | 33 | 1.0 | 1.0 | 0.00 | 0.02 | 0.02 | 76 | 1014.6 |
| 20260508005537 | 51 | 103 | 1.0 | 1.0 | 0.00 | 0.02 | 0.02 | 78 | 1014.3 |
| 20260508005034 | 51 | 149 | 1.0 | 1.0 | 0.00 | 0.02 | 0.02 | 76 | 1014.4 |
| 20260508004530 | 51 | 209 | 2.0 | 3.0 | 0.00 | 0.02 | 0.02 | 74 | 1014.4 |
| 20260508004027 | 51 | 161 | 2.0 | 3.0 | 0.00 | 0.02 | 0.02 | 74 | 1014.5 |
| 20260508003523 | 52 | 92 | 1.0 | 1.0 | 0.00 | 0.02 | 0.02 | 76 | 1014.7 |
| 20260508003021 | 52 | 69 | 0.0 | 0.0 | 0.00 | 0.02 | 0.02 | 72 | 1014.7 |
| 20260508002517 | 52 | 25 | 2.0 | 3.0 | 0.00 | 0.02 | 0.02 | 73 | 1014.8 |
| 20260508002015 | 52 | 121 | 2.0 | 3.0 | 0.00 | 0.02 | 0.02 | 75 | 1014.6 |
| 20260508001510 | 52 | 71 | 0.0 | 0.0 | 0.00 | 0.02 | 0.02 | 74 | 1014.8 |
| 20260508001007 | 53 | 149 | 2.0 | 2.0 | 0.00 | 0.02 | 0.02 | 73 | 1014.8 |
| 20260508000502 | 53 | 87 | 1.0 | 1.0 | 0.00 | 0.02 | 0.02 | 70 | 1014.8 |
| 20260508000000 | 53 | 70 | 0.0 | 0.0 | 0.00 | 0.02 | 0.02 | 69 | 1014.7 |
| 20260507235456 | 53 | 42 | 0.0 | 1.0 | 0.00 | 0.02 | 0.02 | 71 | 1014.8 |
| 20260507234954 | 53 | 53 | 0.0 | 1.0 | 0.00 | 0.02 | 0.02 | 69 | 1014.8 |
| 20260507234450 | 54 | 294 | 1.0 | 2.0 | 0.00 | 0.02 | 0.02 | 68 | 1014.6 |
| 20260507233947 | 54 | 26 | 1.0 | 2.0 | 0.00 | 0.02 | 0.02 | 67 | 1014.5 |
| 20260507233444 | 54 | 174 | 2.0 | 3.0 | 0.00 | 0.02 | 0.02 | 70 | 1014.7 |
| 20260507232942 | 54 | 53 | 2.0 | 2.0 | 0.00 | 0.02 | 0.02 | 66 | 1014.4 |
| 20260507232438 | 54 | 26 | 1.0 | 2.0 | 0.00 | 0.02 | 0.02 | 68 | 1014.2 |
| 20260507231936 | 54 | 22 | 2.0 | 3.0 | 0.00 | 0.02 | 0.02 | 74 | 1014.1 |
| 20260507231432 | 55 | 61 | 0.0 | 0.0 | 0.00 | 0.02 | 0.02 | 72 | 1014.4 |
| 20260507230929 | 55 | 237 | 6.0 | 7.0 | 0.00 | 0.02 | 0.02 | 67 | 1014.2 |
| 20260507230426 | 55 | 36 | 2.0 | 3.0 | 0.00 | 0.02 | 0.02 | 67 | 1014.2 |
| 20260507225926 | 55 | 42 | 3.0 | 7.0 | 0.00 | 0.02 | 0.02 | 68 | 1013.8 |
| 20260507225423 | 55 | 145 | 4.0 | 6.0 | 0.00 | 0.02 | 0.02 | 67 | 1014.2 |
| 20260507224919 | 55 | 50 | 2.0 | 2.0 | 0.00 | 0.02 | 0.02 | 71 | 1014.0 |
| 20260507224415 | 56 | 31 | 2.0 | 3.0 | 0.00 | 0.02 | 0.02 | 72 | 1014.1 |
| 20260507223912 | 57 | 34 | 2.0 | 2.0 | 0.00 | 0.02 | 0.02 | 72 | 1013.8 |
| 20260507223408 | 58 | 18 | 6.0 | 8.0 | 0.00 | 0.02 | 0.02 | 65 | 1014.4 |
| 20260507222905 | 59 | 65 | 0.0 | 1.0 | 0.00 | 0.02 | 0.02 | 72 | 1014.1 |
| 20260507222401 | 59 | 13 | 0.0 | 1.0 | 0.00 | 0.02 | 0.02 | 65 | 1014.4 |
| 20260507221858 | 60 | 23 | 2.0 | 3.0 | 0.00 | 0.02 | 0.02 | 64 | 1014.0 |
| 20260507221355 | 59 | 74 | 1.0 | 2.0 | 0.00 | 0.02 | 0.02 | 67 | 1013.8 |
| 20260507220851 | 59 | 23 | 1.0 | 2.0 | 0.00 | 0.02 | 0.02 | 70 | 1013.8 |
| 20260507220349 | 57 | 51 | 2.0 | 3.0 | 0.00 | 0.02 | 0.02 | 72 | 1014.1 |
| 20260507215845 | 56 | 18 | 3.0 | 4.0 | 0.00 | 0.02 | 0.02 | 75 | 1013.7 |
| 20260507215342 | 57 | 253 | 2.0 | 3.0 | 0.00 | 0.02 | 0.02 | 74 | 1013.8 |
| 20260507214839 | 57 | 280 | 3.0 | 4.0 | 0.00 | 0.02 | 0.02 | 74 | 1013.8 |
| 20260507214338 | 58 | 55 | 3.0 | 4.0 | 0.00 | 0.02 | 0.02 | 73 | 1013.8 |
| 20260507213837 | 59 | 27 | 2.0 | 6.0 | 0.00 | 0.02 | 0.02 | 71 | 1013.8 |
| 20260507213335 | 59 | 30 | 4.0 | 7.0 | 0.00 | 0.02 | 0.02 | 70 | 1013.4 |
| 20260507212831 | 60 | 29 | 1.0 | 1.0 | 0.00 | 0.02 | 0.02 | 68 | 1013.2 |
| 20260507212327 | 62 | 41 | 1.0 | 2.0 | 0.00 | 0.02 | 0.02 | 65 | 1013.4 |
| 20260507211824 | 62 | 19 | 0.0 | 0.0 | 0.00 | 0.02 | 0.02 | 65 | 1013.1 |
| 20260507211321 | 62 | 46 | 3.0 | 6.0 | 0.00 | 0.02 | 0.02 | 64 | 1013.0 |
| 20260507210818 | 64 | 9 | 4.0 | 4.0 | 0.00 | 0.02 | 0.02 | 63 | 1013.1 |
| 20260507210315 | 64 | 263 | 1.0 | 3.0 | 0.00 | 0.02 | 0.02 | 64 | 1013.0 |
| 20260507205811 | 65 | 25 | 2.0 | 3.0 | 0.00 | 0.02 | 0.02 | 62 | 1012.6 |
| 20260507205308 | 66 | 32 | 0.0 | 0.0 | 0.00 | 0.02 | 0.02 | 62 | 1012.8 |
| 20260507204804 | 68 | 103 | 1.0 | 1.0 | 0.00 | 0.02 | 0.02 | 63 | 1012.7 |
| 20260507204302 | 68 | 215 | 2.0 | 2.0 | 0.00 | 0.02 | 0.02 | 58 | 1012.7 |
| 20260507203800 | 68 | 45 | 1.0 | 1.0 | 0.00 | 0.02 | 0.02 | 58 | 1012.5 |
| 20260507203257 | 68 | 23 | 1.0 | 2.0 | 0.00 | 0.02 | 0.02 | 60 | 1012.3 |
| 20260507202753 | 69 | 32 | 1.0 | 2.0 | 0.00 | 0.02 | 0.02 | 57 | 1012.5 |
| 20260507202249 | 69 | 28 | 0.0 | 0.0 | 0.00 | 0.02 | 0.02 | 59 | 1012.3 |
| 20260507201744 | 68 | 243 | 2.0 | 3.0 | 0.00 | 0.02 | 0.02 | 59 | 1012.3 |
| 20260507201241 | 68 | 17 | 2.0 | 2.0 | 0.00 | 0.02 | 0.02 | 61 | 1012.3 |
| 20260507200737 | 67 | 6 | 1.0 | 1.0 | 0.00 | 0.02 | 0.02 | 64 | 1012.3 |
| 20260507200233 | 68 | 277 | 5.0 | 6.0 | 0.00 | 0.02 | 0.02 | 60 | 1012.3 |
| 20260507195730 | 69 | 46 | 2.0 | 2.0 | 0.00 | 0.02 | 0.02 | 57 | 1012.3 |
| 20260507195227 | 69 | 37 | 2.0 | 2.0 | 0.00 | 0.02 | 0.02 | 58 | 1012.2 |
| 20260507194724 | 69 | 37 | 2.0 | 4.0 | 0.00 | 0.02 | 0.02 | 57 | 1012.3 |
| 20260507194220 | 69 | 213 | 2.0 | 3.0 | 0.00 | 0.02 | 0.02 | 59 | 1012.2 |
| 20260507193717 | 70 | 19 | 3.0 | 3.0 | 0.00 | 0.02 | 0.02 | 58 | 1012.5 |
| 20260507193214 | 71 | 17 | 1.0 | 2.0 | 0.00 | 0.02 | 0.02 | 57 | 1012.5 |
| 20260507192710 | 71 | 65 | 3.0 | 6.0 | 0.00 | 0.02 | 0.02 | 56 | 1012.5 |
| 20260507192207 | 71 | 26 | 1.0 | 2.0 | 0.00 | 0.02 | 0.02 | 56 | 1012.3 |
| 20260507191702 | 70 | 251 | 1.0 | 2.0 | 0.00 | 0.02 | 0.02 | 60 | 1012.7 |
| 20260507191200 | 69 | 301 | 1.0 | 2.0 | 0.00 | 0.02 | 0.02 | 60 | 1012.7 |
| 20260507190657 | 69 | 12 | 2.0 | 2.0 | 0.00 | 0.02 | 0.02 | 58 | 1012.7 |
| 20260507190155 | 70 | 272 | 3.0 | 4.0 | 0.00 | 0.02 | 0.02 | 59 | 1012.6 |
| 20260507185654 | 70 | 171 | 2.0 | 2.0 | 0.00 | 0.02 | 0.02 | 59 | 1012.9 |
| 20260507185150 | 70 | 338 | 3.0 | 4.0 | 0.00 | 0.02 | 0.02 | 62 | 1012.7 |
| 20260507184648 | 71 | 31 | 2.0 | 3.0 | 0.00 | 0.02 | 0.02 | 59 | 1012.8 |
| 20260507184146 | 71 | 354 | 2.0 | 2.0 | 0.00 | 0.02 | 0.02 | 59 | 1012.6 |
| 20260507183642 | 72 | 192 | 2.0 | 3.0 | 0.00 | 0.02 | 0.02 | 58 | 1012.7 |
| 20260507183139 | 71 | 56 | 1.0 | 1.0 | 0.00 | 0.02 | 0.02 | 63 | 1012.6 |
| 20260507182636 | 70 | 23 | 1.0 | 1.0 | 0.00 | 0.02 | 0.02 | 65 | 1012.8 |
| 20260507182131 | 69 | 43 | 1.0 | 1.0 | 0.00 | 0.02 | 0.02 | 68 | 1012.9 |
| 20260507181628 | 68 | 357 | 2.0 | 2.0 | 0.00 | 0.02 | 0.02 | 66 | 1012.8 |
| 20260507181124 | 70 | 291 | 3.0 | 4.0 | 0.00 | 0.02 | 0.02 | 63 | 1012.8 |
| 20260507180620 | 70 | 25 | 1.0 | 1.0 | 0.00 | 0.02 | 0.02 | 65 | 1012.6 |
| 20260507180118 | 70 | 43 | 2.0 | 2.0 | 0.00 | 0.02 | 0.02 | 64 | 1012.5 |
| 20260507175614 | 71 | 28 | 5.0 | 7.0 | 0.00 | 0.02 | 0.02 | 64 | 1012.6 |
| 20260507175111 | 71 | 255 | 3.0 | 3.0 | 0.00 | 0.02 | 0.02 | 69 | 1012.5 |
| 20260507174608 | 70 | 36 | 1.0 | 1.0 | 0.00 | 0.02 | 0.02 | 67 | 1012.2 |
| 20260507174106 | 68 | 1 | 0.0 | 1.0 | 0.00 | 0.02 | 0.02 | 71 | 1012.5 |
| 20260507173603 | 68 | 176 | 4.0 | 4.0 | 0.00 | 0.02 | 0.02 | 81 | 1012.2 |
| 20260507173100 | 68 | 45 | 0.0 | 0.0 | 0.00 | 0.02 | 0.02 | 85 | 1012.5 |
| 20260507172556 | 69 | 38 | 1.0 | 1.0 | 0.00 | 0.02 | 0.02 | 83 | 1012.5 |
| 20260507172053 | 68 | 34 | 1.0 | 1.0 | 0.00 | 0.02 | 0.02 | 90 | 1012.3 |
| 20260507171548 | 67 | 67 | 0.0 | 1.0 | 0.00 | 0.02 | 0.02 | 90 | 1012.3 |
| 20260507171046 | 66 | 42 | 0.0 | 0.0 | 0.00 | 0.02 | 0.02 | 91 | 1012.5 |
| 20260507170542 | 66 | 34 | 0.0 | 0.0 | 0.00 | 0.02 | 0.02 | 90 | 1012.3 |
| 20260507170039 | 66 | 5 | 0.0 | 0.0 | 0.00 | 0.02 | 0.02 | 90 | 1012.5 |
| 20260507165535 | 66 | 44 | 0.0 | 0.0 | 0.00 | 0.02 | 0.02 | 91 | 1012.7 |
| 20260507165032 | 66 | 42 | 0.0 | 0.0 | 0.00 | 0.02 | 0.02 | 92 | 1012.5 |
| 20260507164528 | 67 | 41 | 1.0 | 1.0 | 0.00 | 0.02 | 0.02 | 91 | 1012.6 |
| 20260507164025 | 67 | 40 | 1.0 | 1.0 | 0.00 | 0.02 | 0.02 | 91 | 1012.8 |
| 20260507163522 | 67 | 46 | 0.0 | 0.0 | 0.00 | 0.02 | 0.02 | 91 | 1012.8 |
| 20260507163020 | 67 | 46 | 0.0 | 0.0 | 0.00 | 0.02 | 0.02 | 90 | 1012.9 |
| 20260507162515 | 69 | 46 | 1.0 | 1.0 | 0.00 | 0.02 | 0.02 | 88 | 1012.7 |
| 20260507162012 | 69 | 51 | 0.0 | 1.0 | 0.00 | 0.02 | 0.02 | 87 | 1012.9 |
| 20260507161508 | 68 | 67 | 1.0 | 1.0 | 0.00 | 0.02 | 0.02 | 87 | 1012.9 |
| 20260507161005 | 68 | 67 | 0.0 | 1.0 | 0.00 | 0.02 | 0.02 | 91 | 1012.9 |
| 20260507160501 | 67 | 46 | 0.0 | 0.0 | 0.00 | 0.02 | 0.02 | 91 | 1012.9 |
| 20260507155956 | 65 | 59 | 0.0 | 0.0 | 0.00 | 0.02 | 0.02 | 92 | 1012.8 |
| 20260507155453 | 65 | 46 | 0.0 | 0.0 | 0.00 | 0.02 | 0.02 | 96 | 1012.8 |
| 20260507154950 | 64 | 51 | 0.0 | 1.0 | 0.00 | 0.02 | 0.02 | 97 | 1012.8 |
| 20260507154447 | 64 | 41 | 0.0 | 0.0 | 0.00 | 0.02 | 0.02 | 97 | 1012.9 |
| 20260507153944 | 64 | 41 | 0.0 | 0.0 | 0.00 | 0.02 | 0.02 | 97 | 1012.9 |
| 20260507153441 | 64 | 41 | 0.0 | 0.0 | 0.00 | 0.02 | 0.02 | 96 | 1013.0 |
| 20260507152937 | 64 | 41 | 0.0 | 0.0 | 0.00 | 0.02 | 0.02 | 96 | 1013.2 |
| 20260507152433 | 63 | 57 | 0.0 | 0.0 | 0.00 | 0.02 | 0.02 | 96 | 1013.1 |
| 20260507151929 | 63 | 57 | 0.0 | 0.0 | 0.00 | 0.02 | 0.02 | 96 | 1013.0 |
| 20260507151426 | 63 | 57 | 0.0 | 0.0 | 0.00 | 0.02 | 0.02 | 96 | 1013.0 |
| 20260507150923 | 63 | 57 | 0.0 | 0.0 | 0.00 | 0.02 | 0.02 | 96 | 1013.1 |
| 20260507150420 | 63 | 58 | 1.0 | 1.0 | 0.00 | 0.02 | 0.02 | 95 | 1013.1 |
| 20260507145916 | 64 | 54 | 1.0 | 1.0 | 0.00 | 0.02 | 0.02 | 95 | 1013.1 |
| 20260507145412 | 64 | 53 | 0.0 | 0.0 | 0.00 | 0.02 | 0.02 | 96 | 1013.2 |
| 20260507144909 | 63 | 45 | 0.0 | 0.0 | 0.00 | 0.02 | 0.02 | 97 | 1013.3 |
| 20260507144406 | 63 | 56 | 0.0 | 0.0 | 0.00 | 0.02 | 0.02 | 97 | 1013.4 |
| 20260507143903 | 63 | 59 | 0.0 | 0.0 | 0.00 | 0.02 | 0.02 | 97 | 1013.3 |
| 20260507143400 | 63 | 61 | 0.0 | 0.0 | 0.00 | 0.02 | 0.02 | 97 | 1013.2 |
| 20260507142856 | 63 | 42 | 0.0 | 0.0 | 0.00 | 0.02 | 0.02 | 96 | 1013.3 |
| 20260507142352 | 62 | 41 | 0.0 | 0.0 | 0.00 | 0.02 | 0.02 | 98 | 1013.5 |
| 20260507141849 | 62 | 41 | 0.0 | 0.0 | 0.00 | 0.02 | 0.02 | 98 | 1013.4 |
| 20260507141346 | 62 | 41 | 0.0 | 0.0 | 0.00 | 0.02 | 0.02 | 97 | 1013.4 |
| 20260507140843 | 62 | 40 | 0.0 | 0.0 | 0.00 | 0.02 | 0.02 | 96 | 1013.6 |
| 20260507140339 | 62 | 41 | 0.0 | 0.0 | 0.00 | 0.02 | 0.02 | 96 | 1013.4 |
| 20260507135837 | 62 | 35 | 0.0 | 0.0 | 0.00 | 0.02 | 0.02 | 95 | 1013.3 |